Volver al catálogo

THOR ABLESTAR DEB

ActivoVLEO
NORAD 461·DEBRIS·🇺🇸 United States

Lanzado Jun 29, 1961 desde Cape Canaveral Space Force Station

Loading…

Próximos Pases (próximas 24 horas)

TLE

ActualizadoSource: Space-Track

Época: Sep 14, 2026, 06:25 UTC

1 00461U 61015EX  26257.26804607  .00021959  00000-0  12550-2 0  9990
2 00461  67.4913 192.7794 0024163 215.7077 144.2455 15.12443663399266

Sigue THOR ABLESTAR DEB en tiempo real con AllMySat

Download on the App Store